[[{"header":{"parameterUnit":"m.s-1","parameterCategory":1,"la1":30.2991,"la2":30.254,"lo1":-89.0895,"lo2":-89.0444,"dy":0.0017,"dx":0.0017,"nx":28,"ny":28,"refTime":"2024-06-29T09:00:00:Z","depth":0,"parameterNumber":2,"parameterNumberName":"U-component_of_WINDS"},"data":[0,0,0,0,0,0,0,0,0,0,0,0,0,0,0,0,0,0,0,0,0,0,0,0,0,0,0,0,0,0,0,0,0,0,0,0,0,0,0,0,0,0,0,0,0,0,0,0,0,0,0,0,0,0,0,0,0,0,2.8934,2.8935,0,2.9011,2.9012,2.9013,2.899,2.8989,2.8987,2.8986,2.9062,2.9065,2.9069,0,0,0,0,0,0,0,0,0,0,0,0,0,2.8764,2.8768,2.8934,2.8935,2.8936,2.9011,2.9012,2.9013,2.8991,2.8989,2.8987,2.8985,2.9061,2.9065,2.9069,0,0,0,0,0,0,0,0,0,0,0,0,0,2.8839,2.8769,2.8934,2.8934,2.8935,2.901,2.9012,2.9013,2.8991,2.8989,2.8986,2.8984,2.9059,2.9064,2.907,2.9149,0,0,2.9086,2.9088,0,0,0,0,0,0,0,0,2.8835,2.8845,2.8933,2.8934,2.8935,2.8989,2.898,2.9059,2.8992,2.897,2.8986,2.8983,2.9039,2.9046,2.9066,2.9153,2.9156,2.9086,2.9089,2.9092,2.9093,0,0,0,0,0,0,0,2.883,2.8842,2.8964,2.8934,2.8936,2.8929,2.8937,2.8995,2.9017,2.8971,2.897,2.8979,2.9039,2.9061,2.9067,2.9157,2.9086,2.9091,2.9094,2.9096,2.9309,2.9311,0,0,0,0,0,0,2.8824,2.8838,2.8962,2.8967,2.8878,2.8934,2.8943,2.8974,2.9016,2.902,2.8981,2.8978,2.9053,2.9061,2.907,2.9162,2.9092,2.9096,2.9099,2.9306,2.9309,2.9312,0,0,0,0,0,0,2.8821,2.8836,2.8959,2.8902,2.8917,2.8939,2.8974,2.8977,2.8998,2.9024,2.9027,2.8999,2.9051,2.9062,2.9129,2.9165,2.9099,2.9104,2.9303,2.9307,2.9311,2.935,0,0,0,0,0,0,2.8816,2.8835,2.8866,2.8903,2.892,2.9018,2.8977,2.898,2.9007,2.9003,2.9041,2.9045,2.905,2.9121,2.9134,2.9171,2.9108,2.93,2.9305,2.9309,2.9345,2.9354,2.9362,0,0,0,0,0,2.881,2.8875,2.8868,2.8883,2.8961,2.902,2.903,2.9035,2.901,2.9041,2.9057,2.9044,2.9159,2.9128,2.9142,2.9181,2.9298,2.9304,2.9309,2.9342,2.9353,2.9362,0,0,0,0,0,0,2.8842,2.888,2.8873,2.8951,2.8983,2.9016,2.9056,2.9047,2.9086,2.9081,2.9085,2.9094,2.9161,2.9178,2.9143,2.9258,2.9224,2.9233,2.9244,2.9255,2.9263,2.9257,2.9112,0,0,0,0,0,2.8858,2.8904,2.8935,2.9001,2.9017,2.9034,2.906,2.9061,2.9094,2.9107,2.9128,2.9159,2.9201,2.923,2.9271,2.9348,2.9354,2.9382,2.939,2.9397,2.9404,2.9442,2.9454,2.933,2.933,2.933,0,0,2.8892,2.8918,2.8947,2.9008,2.9032,2.9078,2.9045,2.9096,2.913,2.9114,2.9177,2.9194,2.9228,2.93,2.9332,2.9316,2.9439,2.9404,2.9409,2.9413,2.9449,2.9461,2.9471,2.9334,2.9334,2.9333,0,0,2.8976,2.9002,2.9059,2.9083,2.9121,2.9131,2.9144,2.9179,2.9189,2.9253,2.9241,2.928,2.9355,2.9379,2.9401,2.9491,2.9479,2.9505,2.9548,2.9585,2.9595,2.9603,2.9632,2.9643,2.9512,2.9512,2.9512,0,2.9013,2.9083,2.9088,2.914,2.9165,2.9153,2.9208,2.9232,2.9281,2.9298,2.9279,2.937,2.9393,2.9468,2.9489,2.9509,2.9522,2.95,2.9593,2.9602,2.961,2.9637,2.9649,2.9515,2.9514,2.9514,2.9514,0,2.9125,2.9173,2.9214,2.926,2.9291,2.9344,2.9355,2.9385,2.9383,2.9395,2.9457,2.9484,2.9529,2.9547,2.9546,2.9621,2.9609,2.9592,2.9558,2.9624,2.965,2.9661,2.9518,2.9517,2.9517,2.9516,0,0,2.9231,2.9278,2.9293,2.9312,2.9352,2.9388,2.944,2.9483,2.9507,2.9541,2.9581,2.9644,2.9627,2.9652,2.9654,2.9687,2.9752,2.9665,2.9666,2.9677,2.9832,2.9842,2.9854,2.9745,2.9747,2.9749,2.9827,0,2.9316,2.9407,2.9412,2.9493,2.9536,2.9524,2.9568,2.9596,2.9608,2.9644,2.9657,2.97,2.9677,2.9691,2.9723,2.9737,2.9782,2.9732,2.9781,2.9782,2.9769,2.9868,2.988,2.9953,2.9838,2.984,2.9841,0,2.9428,2.9463,2.9549,2.9579,2.9597,2.9637,2.9675,2.9712,2.9741,2.9747,2.9774,2.977,2.982,2.9785,2.9852,2.9818,2.9838,2.9848,2.985,2.9853,2.9814,2.987,2.9977,2.9987,2.9858,2.9856,2.9855,0,2.9492,2.9562,2.9621,2.9639,2.9676,2.9704,2.972,2.9748,2.9773,2.9806,2.9822,2.9861,2.9882,2.9911,2.9916,2.9892,2.9982,2.9949,2.9986,2.9986,3.0004,3.0002,3.0112,3.0022,3.0022,3.0022,3.0021,0,2.9585,2.9637,2.965,2.9686,2.9743,2.9748,2.9803,2.9818,2.9842,2.9879,2.9872,2.9907,2.9914,2.9949,2.9954,3.0006,3.0017,3.0021,3.0021,3.002,3.0019,3.0031,3.0025,3.0025,3.0024,3.0023,3.0023,0,2.9666,2.9677,2.974,2.977,2.9779,2.9819,2.9843,2.9877,2.9887,2.9934,2.9945,2.9961,3.0002,3.0011,3.006,3.0063,3.0124,3.0121,3.0114,3.0113,3.0148,3.0143,3.0267,3.0282,3.0185,3.0186,3.0187,0,2.9723,2.9762,2.9795,2.982,2.9837,2.9877,2.9902,2.9908,2.9933,2.9969,2.9997,3.0037,3.007,3.0136,3.015,3.0187,3.0183,3.0224,3.0188,3.0184,3.0179,3.0176,3.0178,3.0229,3.023,3.0231,3.0232,0,2.9821,2.9824,2.9861,2.9899,2.9928,2.9958,2.9987,3.0007,3.0016,3.0045,3.0086,3.0111,3.0161,3.0199,3.0236,3.0251,3.0242,3.0243,3.0253,3.0251,3.0244,3.0245,3.0129,3.024,3.0239,3.0239,3.0238,3.0238,2.989,2.9923,2.995,2.999,3.0012,3.0038,3.007,3.0084,3.0119,3.0159,3.016,3.0205,3.0231,3.0278,3.0296,3.033,3.0317,3.0332,3.0335,3.0338,3.0339,3.0241,3.0337,3.0336,3.0336,3.0336,3.0336,0,2.9985,3.0002,3.0038,3.0078,3.0108,3.0098,3.0128,3.0154,3.0194,3.0219,3.025,3.0297,3.0334,3.0351,3.0387,3.0411,3.0407,3.042,3.0416,3.0419,3.0351,3.0337,3.0422,3.0422,3.0422,3.0422,3.0421,3.0421,3.0038,3.0092,3.0098,3.0161,3.0178,3.0222,3.0239,3.0262,3.0282,3.0334,3.0365,3.0376,3.0397,3.0434,3.0467,3.0471,3.0483,3.0497,3.0499,3.0434,3.0425,3.0416,3.0403,3.05,3.05,3.0564,3.0565,3.0565]},{"header":{"parameterUnit":"m.s-1","parameterCategory":1,"la1":30.2991,"la2":30.254,"lo1":-89.0895,"lo2":-89.0444,"dy":0.0017,"dx":0.0017,"nx":28,"ny":28,"refTime":"2024-06-29T09:00:00:Z","depth":0,"parameterNumber":3,"parameterNumberName":"V-component_of_WINDS"},"data":[0,0,0,0,0,0,0,0,0,0,0,0,0,0,0,0,0,0,0,0,0,0,0,0,0,0,0,0,0,0,0,0,0,0,0,0,0,0,0,0,0,0,0,0,0,0,0,0,0,0,0,0,0,0,0,0,0,0,4.7193,4.7195,0,4.732,4.7322,4.7323,4.7304,4.7302,4.73,4.7298,4.7422,4.7428,4.7433,0,0,0,0,0,0,0,0,0,0,0,0,0,4.6926,4.6931,4.7193,4.7195,4.7196,4.732,4.7322,4.7324,4.7305,4.7302,4.73,4.7297,4.7421,4.7427,4.7433,0,0,0,0,0,0,0,0,0,0,0,0,0,4.7046,4.6933,4.7193,4.7202,4.7204,4.732,4.7322,4.7324,4.7305,4.7302,4.7299,4.7296,4.7419,4.7426,4.7434,4.7547,0,0,4.7458,4.7462,0,0,0,0,0,0,0,0,4.7039,4.7056,4.7199,4.7201,4.7204,4.7293,4.7273,4.7399,4.7306,4.7267,4.7298,4.7294,4.7382,4.7392,4.7423,4.7553,4.7558,4.7459,4.7464,4.7467,4.747,0,0,0,0,0,0,0,4.7031,4.705,4.7243,4.7201,4.7204,4.7197,4.7211,4.7297,4.734,4.727,4.7269,4.7284,4.7382,4.7416,4.7426,4.756,4.7459,4.7466,4.7471,4.7474,4.7785,4.7788,0,0,0,0,0,0,4.7021,4.7044,4.7239,4.7247,4.7112,4.7204,4.722,4.7268,4.7339,4.7347,4.7287,4.7283,4.7404,4.7417,4.743,4.7565,4.7467,4.7475,4.7479,4.7782,4.7786,4.779,0,0,0,0,0,0,4.7016,4.7039,4.7234,4.7145,4.7169,4.7213,4.7267,4.7272,4.7305,4.7353,4.7359,4.7314,4.7402,4.7419,4.7518,4.7569,4.7478,4.7486,4.7778,4.7783,4.7788,4.7837,0,0,0,0,0,0,4.7008,4.7037,4.7082,4.7146,4.7174,4.7322,4.727,4.7277,4.732,4.7316,4.7379,4.7386,4.74,4.7506,4.7526,4.7578,4.7492,4.7773,4.778,4.7786,4.7831,4.7843,4.7854,0,0,0,0,0,4.6999,4.7091,4.7085,4.7109,4.7232,4.7325,4.7341,4.7357,4.7324,4.7368,4.7398,4.7384,4.7561,4.7516,4.7538,4.7594,4.777,4.7778,4.7786,4.7826,4.7841,4.7853,0,0,0,0,0,0,4.703,4.7099,4.7094,4.721,4.7262,4.7322,4.7379,4.7373,4.7434,4.7427,4.7442,4.7457,4.7556,4.7585,4.7535,4.7705,4.766,4.7673,4.7683,4.7698,4.7709,4.7699,4.7498,0,0,0,0,0,4.7051,4.7123,4.7178,4.7275,4.7302,4.7336,4.7377,4.7384,4.7438,4.746,4.7497,4.7548,4.7614,4.7658,4.7722,4.7835,4.7847,4.7884,4.7895,4.7904,4.7915,4.7973,4.799,4.7816,4.7816,4.7815,0,0,4.7094,4.714,4.7185,4.7282,4.7324,4.7395,4.7354,4.7432,4.7484,4.7471,4.7567,4.7595,4.7653,4.7759,4.7807,4.7786,4.7965,4.7914,4.7921,4.7927,4.7983,4.7999,4.8014,4.7821,4.782,4.7819,0,0,4.7208,4.7252,4.7336,4.7379,4.7442,4.7464,4.7484,4.7545,4.7564,4.766,4.7651,4.7712,4.7827,4.7867,4.7903,4.803,4.8019,4.805,4.811,4.8167,4.818,4.8193,4.8235,4.8251,4.8061,4.8061,4.8061,0,4.7253,4.7363,4.738,4.7459,4.75,4.7493,4.7576,4.7615,4.7696,4.7723,4.7699,4.7841,4.788,4.7994,4.8024,4.8054,4.8075,4.8043,4.8178,4.819,4.8201,4.8242,4.8259,4.8064,4.8064,4.8064,4.8063,0,4.7413,4.7489,4.7549,4.7628,4.7677,4.7757,4.7784,4.783,4.7833,4.7856,4.7953,4.7998,4.807,4.8098,4.8101,4.8211,4.8196,4.8174,4.8129,4.8221,4.826,4.8276,4.8069,4.8068,4.8067,4.8066,0,0,4.7552,4.7638,4.766,4.7694,4.7763,4.782,4.7899,4.7971,4.8009,4.8064,4.8128,4.8225,4.8205,4.8245,4.8253,4.8303,4.8398,4.8275,4.8277,4.8295,4.8518,4.8533,4.8551,4.8391,4.8394,4.8396,4.8513,0,4.7671,4.7813,4.7829,4.7954,4.8022,4.8015,4.8083,4.813,4.8154,4.8213,4.8238,4.8305,4.8275,4.8299,4.8349,4.8376,4.8443,4.8368,4.8448,4.8451,4.8433,4.8572,4.8588,4.8696,4.8528,4.8531,4.8533,0,4.783,4.7891,4.8023,4.8079,4.8108,4.817,4.8235,4.8293,4.8345,4.8358,4.8403,4.8403,4.8481,4.8433,4.8539,4.8488,4.8521,4.8539,4.8543,4.855,4.8496,4.858,4.8731,4.8747,4.8557,4.8555,4.8554,0,4.7915,4.8029,4.8122,4.8152,4.8222,4.8264,4.8294,4.8344,4.8385,4.8442,4.8468,4.8532,4.8567,4.8615,4.8631,4.8596,4.8735,4.869,4.8746,4.8745,4.8775,4.8772,4.8931,4.8799,4.8799,4.8799,4.8798,0,4.8046,4.8126,4.8161,4.8218,4.8307,4.8324,4.841,4.8438,4.8482,4.8542,4.8539,4.8595,4.8614,4.8672,4.8685,4.8769,4.8785,4.8795,4.8797,4.8795,4.8793,4.8816,4.8808,4.8803,4.8802,4.8801,4.8801,0,4.8156,4.8183,4.8283,4.834,4.8356,4.8419,4.8466,4.852,4.8542,4.8617,4.8636,4.867,4.8738,4.8759,4.8841,4.885,4.8947,4.8943,4.893,4.893,4.8984,4.8977,4.9161,4.9185,4.9039,4.904,4.9042,0,4.8237,4.8299,4.8362,4.8403,4.8435,4.8501,4.8543,4.8561,4.8604,4.8667,4.8712,4.878,4.8835,4.8944,4.8974,4.9036,4.9032,4.9092,4.9041,4.9036,4.903,4.9026,4.9031,4.9101,4.9103,4.9104,4.9105,0,4.8377,4.8387,4.8449,4.8515,4.8565,4.8618,4.8668,4.8701,4.8725,4.8773,4.8844,4.8887,4.897,4.9036,4.9099,4.9127,4.9119,4.9121,4.9137,4.9134,4.9123,4.9127,4.8954,4.9116,4.9115,4.9114,4.9114,4.9113,4.8473,4.8527,4.8579,4.8647,4.8687,4.8734,4.8786,4.8815,4.8875,4.8945,4.8951,4.9026,4.9074,4.9158,4.9189,4.9246,4.9228,4.9252,4.9257,4.9262,4.9266,4.9115,4.9257,4.9257,4.9257,4.9256,4.9256,0,4.8611,4.8645,4.8707,4.8778,4.8831,4.8821,4.8875,4.8919,4.8986,4.9032,4.9087,4.9166,4.9229,4.9264,4.9327,4.9365,4.9363,4.9381,4.9378,4.9383,4.9279,4.9258,4.9382,4.9382,4.9382,4.9382,4.9382,4.9382,4.8689,4.8778,4.8794,4.8901,4.8933,4.9009,4.904,4.9082,4.9119,4.9208,4.9261,4.9284,4.9325,4.939,4.9447,4.9455,4.9477,4.9497,4.9503,4.9404,4.9391,4.9379,4.9359,4.9502,4.9502,4.9602,4.9603,4.9604]}]]